Location: Newark
(40.9833°N, 0.0333°W)
Time: 08:37:06
(UTC+00:00)

Transit 4A - Pass Details

Date: 29 October 2020
Orbit: 862 x 982 km, 66.8° (Epoch: 28 November)

Event Time Altitude Azimuth Distance (km) Brightness Sun altitude
Rises 13:37:23 0° 174° (S) 3,562 11.7 29.3°
Reaches altitude 10° 13:40:13 10° 163° (SSE) 2,643 11.0 29.0°
Maximum altitude 13:45:20 28° 107° (ESE) 1,707 9.4 28.5°
Drops below altitude 10° 13:50:36 10° 51° (NE) 2,716 9.9 27.9°
Sets 13:53:31 0° 40° (NE) 3,679 10.5 27.6°
